GEFSCGP_500_meanwind_138.txt.gz
Wind_Speed
9 10 13 15 18 19 19 20 20 21 21 22 21 23 23 25 26 25 26 27 27 27 28 29 30 31 31 30 30 30 30 30 30 30 31 31 32 32 33 33 33 33 33 33
9 10 12 14 16 16 17 18 18 19 19 20 20 21 22 23 24 25 25 26 26 27 27 28 29 30 30 30 30 30 30 30 31 31 31 31 32 32 33 34 34 33 33 33
8 9 10 11 13 14 16 16 16 17 18 19 19 19 21 21 22 23 24 24 25 25 25 27 28 29 30 30 30 30 31 31 32 32 32 32 32 32 33 32 33 34 34 34
8 8 8 9 11 12 13 14 14 15 16 17 17 18 19 20 20 21 22 23 24 26 26 26 28 29 29 29 30 31 31 32 32 32 33 33 34 34 34 34 35 35 36 36
7 7 8 8 9 10 11 11 12 13 14 15 16 17 18 19 20 20 21 22 23 25 26 26 28 30 30 30 30 32 32 32 33 33 33 34 35 35 36 36 36 36 37 37
6 6 6 7 7 8 9 10 11 12 13 14 15 16 17 18 18 19 20 22 23 23 25 27 28 30 31 31 31 31 32 33 34 34 34 35 35 36 36 37 37 36 36 37
4 4 5 5 6 7 8 8 10 11 12 13 14 15 16 16 18 19 20 21 22 23 24 26 27 28 30 31 31 31 32 33 34 35 35 35 35 36 36 37 37 37 37 38
3 3 3 3 4 6 6 7 9 10 11 12 14 15 15 16 17 18 20 21 22 23 24 26 27 28 29 30 30 31 31 32 33 34 35 35 35 36 37 37 38 38 39 39
1 1 1 2 3 5 6 7 8 10 11 12 14 15 16 16 17 18 20 21 22 23 24 25 26 27 28 29 29 30 31 32 33 34 35 36 36 36 36 37 38 39 39 40
1 0 1 2 3 5 6 7 9 10 11 12 13 13 14 15 16 18 19 19 21 22 22 23 24 25 26 28 30 31 32 33 34 34 35 36 36 36 37 37 38 39 40 41
2 2 2 3 4 5 6 7 8 10 11 12 12 12 13 14 15 16 17 18 19 20 21 23 24 25 26 28 29 31 32 34 35 35 35 36 37 37 38 38 39 39 40 40
3 4 5 5 6 6 7 8 9 10 11 12 13 13 13 14 15 16 17 18 19 19 20 22 23 25 26 27 29 31 32 34 34 35 35 37 38 38 38 38 38 38 39 39
5 6 7 7 8 8 8 9 10 11 12 12 13 13 14 14 15 16 17 18 19 20 21 22 23 25 26 27 29 30 32 33 34 35 36 37 37 38 38 38 38 38 39 39
7 8 8 9 9 10 10 10 11 12 12 12 13 14 14 15 16 17 17 18 20 21 22 24 25 26 27 28 29 31 32 34 34 35 36 36 37 38 38 39 39 39 40 41
10 10 10 10 10 11 11 11 12 12 13 13 13 14 15 16 17 18 19 20 21 23 24 25 26 27 28 29 30 32 33 34 35 35 36 36 37 37 39 40 40 41 41 42
12 13 12 12 12 12 12 12 13 13 13 14 14 14 16 17 18 19 20 21 23 24 25 26 27 29 30 31 32 33 34 34 35 35 36 36 37 38 39 40 41 41 42 42
15 15 15 14 15 14 13 13 14 14 14 15 15 16 17 18 19 20 21 22 23 25 26 27 29 30 31 32 32 33 34 35 36 37 37 38 38 39 40 40 41 41 42 42
17 17 17 16 16 16 15 15 16 16 16 17 17 19 19 20 21 22 23 24 25 27 28 29 30 32 33 33 34 35 36 37 37 38 39 39 40 40 41 41 41 42 42 42
19 19 19 19 19 18 18 18 19 19 20 20 21 21 22 23 24 25 26 27 28 29 30 31 32 32 34 35 36 37 37 38 39 40 40 41 41 41 42 41 41 41 41 41
20 21 21 21 22 21 20 21 22 23 23 23 24 24 25 26 26 27 28 29 31 31 32 33 34 34 35 36 37 38 39 40 41 41 42 42 42 42 42 41 41 41 41 42
22 23 23 24 25 24 24 24 24 24 24 25 25 26 27 27 28 29 30 31 32 33 35 35 36 36 37 38 39 40 41 41 42 42 42 42 42 42 42 42 42 42 42 43
25 26 26 26 27 26 26 26 26 26 27 27 27 28 28 29 30 31 31 32 34 35 36 36 37 38 39 39 41 41 41 42 41 41 41 41 41 42 42 42 42 43 44 44
27 28 28 28 27 28 28 28 27 28 29 29 29 30 30 31 31 32 33 34 35 36 37 38 38 39 40 40 41 42 42 42 42 42 42 42 42 42 42 42 43 43 44 45
29 29 30 29 29 30 30 30 30 30 30 31 31 31 31 32 33 34 35 36 37 37 38 38 39 39 40 41 42 42 42 43 42 42 42 42 42 42 43 43 44 45 45 46
31 31 31 31 31 32 32 32 32 33 33 33 33 33 34 35 36 37 37 37 38 38 39 39 40 40 41 41 42 42 42 42 42 42 42 43 43 44 44 45 46 47 47 48
32 33 34 34 34 35 34 34 35 35 35 36 36 37 37 38 38 38 38 39 40 40 40 40 41 41 41 41 42 42 43 43 43 43 43 43 44 45 46 47 47 48 48 47

GEFSCGP_500_meanwind_144.txt.gz
Wind_Speed
2 4 6 8 9 11 13 15 16 18 19 21 22 22 23 23 24 25 25 26 27 28 28 29 29 31 31 31 31 31 32 32 32 33 33 33 33 33 32 32 32 32 32 32
2 4 6 7 8 10 11 13 15 16 18 19 21 21 21 22 22 23 24 24 25 27 27 27 29 30 31 32 32 32 32 32 32 33 33 33 33 33 33 33 33 34 33 33
2 2 5 6 8 8 10 12 14 15 16 17 19 20 20 21 22 22 23 24 24 24 26 27 28 30 31 32 33 33 33 33 33 34 34 35 35 34 35 34 34 35 35 34
2 0 3 5 7 8 9 10 12 14 15 15 16 18 19 19 20 21 22 23 24 24 25 27 28 29 31 32 33 33 33 34 34 34 35 36 36 35 35 36 36 36 36 36
3 1 1 3 5 6 8 9 10 12 14 14 15 16 17 18 19 20 21 21 23 24 25 27 28 28 30 31 32 33 33 34 34 34 35 36 36 36 37 36 36 36 36 36
3 1 1 2 4 5 7 8 9 10 12 14 14 15 15 16 18 19 20 21 22 23 25 26 27 28 30 31 32 33 34 35 35 35 35 36 36 37 37 37 36 36 36 36
3 1 0 2 3 5 6 8 9 10 11 12 13 14 15 16 17 19 20 21 22 23 24 25 26 28 29 31 32 33 35 35 35 35 36 36 36 36 37 36 36 37 37 38
3 2 1 2 3 5 6 7 8 10 11 12 13 14 14 15 17 19 20 21 23 24 24 25 26 27 28 30 32 33 34 35 35 36 36 36 36 36 37 38 38 39 40 41
3 2 2 3 4 5 6 7 8 9 11 12 13 14 14 16 17 19 20 21 22 23 24 25 26 27 28 30 31 32 33 34 35 35 35 35 36 37 38 38 40 41 42 42
4 3 3 4 5 6 6 7 9 10 11 13 14 15 16 16 18 19 21 22 23 24 25 26 27 28 29 29 30 32 32 33 33 34 35 36 37 38 38 39 40 41 42 42
6 5 4 5 6 6 8 9 10 11 12 13 14 14 15 17 18 19 21 22 23 24 25 26 27 27 28 28 29 31 32 33 33 34 35 36 37 38 39 40 41 42 41 42
8 8 7 7 7 8 9 10 11 12 13 14 15 14 15 16 17 18 20 21 22 23 24 24 25 25 27 28 29 31 32 32 33 34 35 36 37 38 39 40 41 42 42 42
10 10 10 10 10 11 11 12 13 14 14 15 15 15 16 17 18 19 20 20 21 22 23 23 24 25 26 27 29 30 32 33 34 35 36 37 38 39 40 41 42 42 43 43
12 12 12 13 13 14 13 14 15 15 15 16 15 15 16 18 19 19 19 20 21 22 23 24 25 25 26 27 29 31 32 33 35 36 37 38 39 40 41 42 42 43 43 44
15 15 15 15 16 16 16 16 17 17 17 17 16 17 17 19 20 21 21 21 22 23 24 24 25 26 27 28 30 31 33 34 36 37 38 38 39 40 41 42 44 44 45 45
19 19 19 18 19 19 18 18 19 19 19 19 19 18 20 21 21 21 21 21 22 23 24 25 26 27 28 29 30 31 33 34 36 38 39 40 40 41 41 43 44 45 45 46
21 22 22 21 21 21 20 19 21 21 21 22 21 21 22 22 22 22 23 23 24 25 26 27 28 29 29 30 31 32 34 36 37 39 40 41 41 42 43 43 45 46 46 47
24 24 25 24 24 24 22 22 22 23 23 23 23 23 24 24 24 24 25 26 26 27 28 28 29 31 31 32 33 34 35 36 38 39 40 42 43 43 44 45 45 46 46 46
26 26 26 26 26 25 24 23 24 25 24 25 25 26 26 26 26 26 27 28 28 29 30 31 32 33 33 34 34 35 36 37 38 39 40 41 42 43 44 45 45 45 45 45
27 27 28 28 28 27 25 26 26 27 26 26 27 27 27 27 27 28 29 29 30 31 32 33 33 34 35 35 36 36 37 38 39 40 40 41 42 43 44 45 45 45 45 45
29 29 29 29 29 28 27 28 28 28 28 28 28 28 29 30 30 30 31 32 32 33 34 34 35 36 36 37 37 38 38 38 39 40 41 42 42 43 44 45 45 45 45 45
32 31 30 30 31 30 30 30 30 30 30 30 30 31 31 32 32 32 32 33 34 35 35 36 37 37 38 38 38 39 39 40 40 41 42 42 43 44 44 45 45 45 45 46
34 34 33 33 32 32 32 32 33 32 32 32 32 32 33 33 34 34 34 35 36 37 37 37 38 38 39 39 40 40 41 41 42 42 43 44 44 45 45 45 45 46 47 47
36 35 35 35 34 35 35 35 36 35 35 34 34 34 34 34 35 36 36 37 38 38 38 39 39 40 40 41 42 43 43 44 44 44 44 45 45 46 46 46 46 47 48 49
37 37 37 37 37 38 37 37 37 37 36 36 36 36 36 36 37 37 38 39 39 39 39 40 41 42 42 43 44 45 45 45 45 45 45 46 46 47 46 46 47 48 49 50
37 38 39 39 39 40 39 38 38 38 38 38 38 38 38 38 38 39 39 40 40 41 41 42 43 43 44 45 46 46 46 46 46 46 46 46 47 47 47 48 48 49 50 50

GEFSCGP_500_meanwind_150.txt.gz
Wind_Speed
4 2 2 4 4 5 5 7 9 12 14 16 19 20 22 23 24 25 26 27 29 30 30 30 30 30 31 32 32 31 31 31 33 34 34 33 33 32 32 32 33 33 32 32
5 2 1 2 4 3 3 5 8 10 11 14 16 19 20 21 23 23 24 25 26 26 27 28 28 28 29 29 30 30 31 31 32 33 34 34 35 35 34 34 34 34 34 34
4 2 1 0 1 2 3 4 7 8 10 12 15 17 19 21 22 22 23 24 24 24 25 26 26 27 27 27 29 30 31 31 31 32 33 33 34 36 37 37 36 35 35 36
5 3 1 0 1 2 3 4 6 7 9 11 13 16 19 20 21 21 22 23 23 23 23 24 25 26 26 27 28 29 31 32 31 30 32 33 34 35 36 37 37 37 36 36
5 4 3 2 1 1 2 4 5 7 8 10 12 14 17 18 19 20 21 22 22 22 23 24 25 26 26 26 27 29 31 32 33 33 33 34 34 35 35 36 36 36 36 36
6 4 4 2 2 0 2 4 5 7 8 10 11 12 14 17 17 18 19 21 22 22 23 24 25 26 26 27 28 29 30 31 33 33 34 34 35 35 35 35 36 37 37 37
5 4 3 3 2 2 1 3 5 6 8 10 11 12 13 14 15 17 18 19 20 22 22 23 24 26 27 27 28 29 30 32 33 34 34 35 35 35 35 36 36 37 37 37
6 4 3 3 3 2 3 3 5 7 8 9 11 12 13 14 15 16 18 19 20 21 22 23 24 25 26 27 28 28 29 30 32 34 35 35 35 36 37 37 37 37 37 38
7 5 4 3 3 3 3 4 5 8 9 10 11 12 13 14 15 16 17 19 20 21 22 23 24 24 25 26 27 28 29 30 32 33 34 34 35 35 36 37 38 39 40 40
7 5 4 4 4 4 4 5 6 8 10 11 11 11 13 14 16 17 17 18 20 21 22 23 23 24 25 25 26 28 29 30 31 33 34 34 34 35 35 36 37 38 40 41
8 7 5 5 5 5 6 6 8 9 10 11 12 12 13 15 16 18 19 20 21 22 23 24 24 25 25 26 26 27 28 30 31 32 33 34 34 35 35 36 37 38 40 41
10 9 8 8 8 8 7 8 8 10 10 11 12 12 14 16 17 19 20 21 21 23 24 25 25 26 26 26 27 28 28 29 30 31 33 34 34 35 36 37 39 40 41 42
11 11 10 10 10 10 10 10 11 12 12 12 13 12 14 16 17 19 20 21 22 23 24 25 26 27 27 28 28 29 29 30 31 32 33 34 35 36 37 39 40 41 42 43
13 13 13 13 13 13 13 13 14 14 14 14 14 13 15 17 19 19 20 21 22 23 24 26 27 28 28 29 30 30 30 31 32 33 34 35 36 38 39 40 41 42 42 43
16 16 16 15 16 16 16 16 17 17 17 17 16 15 16 18 20 20 21 22 22 24 24 25 27 28 29 30 31 32 32 33 34 34 35 36 38 39 40 40 41 42 43 44
19 19 19 18 19 18 18 18 19 19 19 19 19 18 18 20 21 22 22 23 23 24 25 26 28 29 30 30 31 32 33 34 35 36 37 37 38 39 40 41 42 43 43 44
22 22 22 21 21 22 20 20 21 21 21 21 21 21 21 22 22 23 24 24 25 26 27 28 29 30 31 31 32 33 34 35 36 36 37 38 39 40 40 41 42 44 44 45
25 25 25 25 24 24 22 22 23 23 22 23 23 23 23 23 24 24 25 26 26 27 27 28 29 30 31 32 33 34 35 35 36 37 38 39 40 40 41 41 42 44 44 45
27 27 28 28 27 27 24 24 25 25 24 24 24 25 25 25 26 26 26 26 27 27 28 29 30 31 32 33 33 34 35 36 37 38 38 39 39 40 40 41 42 43 44 44
30 30 30 29 29 28 26 26 26 26 26 26 26 26 27 27 27 27 27 27 28 28 29 29 30 31 32 33 34 35 36 36 37 38 39 39 40 40 41 42 42 43 43 44
31 31 31 30 30 29 28 28 28 28 28 28 28 28 28 29 29 29 29 29 30 30 30 31 32 32 33 34 35 35 35 36 37 38 38 39 40 41 42 42 42 43 44 45
34 34 32 32 33 31 30 30 30 30 30 30 30 30 30 30 30 31 31 31 31 32 32 33 34 34 35 35 35 36 36 37 38 39 39 40 41 41 42 42 43 43 44 44
36 35 34 34 33 33 33 33 32 33 32 32 31 32 32 32 32 32 32 32 32 33 34 34 34 35 36 36 37 37 38 39 39 40 40 41 41 42 42 43 43 44 44 45
38 36 36 35 34 35 35 35 34 34 34 33 33 34 34 34 33 33 33 34 34 35 35 35 35 36 37 37 38 38 39 39 40 41 42 42 43 43 44 44 45 45 46 46
39 38 37 37 36 36 36 36 36 36 35 35 35 35 35 35 35 35 35 36 36 37 36 37 37 38 39 40 40 40 40 41 42 42 43 43 44 44 45 45 45 46 47 47
37 38 39 38 38 39 37 37 37 37 37 37 38 37 37 37 37 37 37 37 38 38 38 38 39 40 40 41 42 42 42 42 43 43 43 43 44 44 45 45 45 46 47 48

GEFSCGP_500_meanwind_156.txt.gz
Wind_Speed
11 10 10 9 8 8 7 8 8 9 10 12 14 15 17 19 21 23 25 27 28 28 29 31 33 34 33 33 33 34 34 35 35 35 35 36 36 36 36 36 36 36 34 34
11 10 10 9 9 8 7 7 7 7 8 9 11 13 15 18 19 21 24 26 27 28 28 29 31 33 32 32 33 34 34 34 35 35 36 36 36 37 36 36 36 35 34 34
12 10 9 9 9 7 7 7 7 8 8 8 9 11 13 16 18 20 23 24 25 25 27 27 29 31 31 29 30 32 34 34 35 36 36 36 36 36 36 36 37 37 36 36
12 10 10 9 8 7 6 7 7 7 7 7 9 10 11 13 17 20 22 23 24 24 25 26 27 28 29 29 29 28 30 31 33 34 35 35 35 35 36 36 37 37 37 37
12 11 10 9 8 8 7 7 7 8 9 9 9 9 10 13 15 18 20 21 23 23 24 25 26 27 27 28 28 28 29 30 31 31 32 33 35 36 36 36 37 36 37 37
13 12 11 10 9 9 8 8 8 8 9 9 10 10 9 11 14 16 18 20 21 22 23 24 26 27 27 27 28 28 28 30 31 31 32 33 34 36 37 37 37 37 37 37
13 13 11 11 10 9 9 9 9 9 7 8 9 10 9 11 12 15 17 19 20 21 22 23 24 25 25 26 27 28 28 29 31 32 33 34 34 35 36 36 36 37 37 37
13 13 11 11 11 10 10 10 10 10 10 8 8 10 10 11 13 15 17 18 19 20 21 22 24 25 26 26 27 27 28 29 30 32 33 33 34 34 35 35 35 36 36 37
13 12 12 12 11 11 10 10 11 11 12 11 10 10 11 12 13 14 16 17 19 20 21 22 24 25 26 26 27 28 29 30 31 31 32 33 34 34 34 35 35 36 36 37
14 13 12 12 12 11 11 11 11 12 13 13 11 11 11 11 13 14 16 17 19 20 21 22 23 25 25 26 27 28 29 30 30 31 33 34 34 35 35 36 36 37 38 39
15 14 13 13 12 12 12 13 13 13 13 13 13 12 12 12 13 14 16 18 19 21 22 23 24 25 25 26 27 28 29 30 31 32 33 34 35 36 36 37 38 38 39 39
16 16 15 14 14 14 13 13 13 14 14 14 14 13 13 14 15 16 17 19 20 21 22 24 25 26 26 27 28 29 30 31 32 32 33 34 35 36 37 38 38 39 39 40
17 17 17 16 15 15 14 14 15 16 16 16 16 15 14 15 16 17 18 20 21 22 23 24 25 26 27 28 29 30 31 32 33 34 35 35 35 36 37 38 39 40 40 41
19 19 19 18 18 17 16 16 17 18 18 18 17 17 17 17 18 19 20 21 22 23 24 25 26 27 28 29 30 31 32 33 34 35 36 36 37 37 38 39 39 40 41 42
22 21 21 20 20 20 19 19 19 20 20 20 19 19 19 20 20 20 21 22 23 25 26 27 28 29 30 31 31 32 33 34 35 36 36 37 38 38 39 39 40 41 42 43
24 24 23 22 22 23 22 21 21 21 22 22 22 21 21 22 22 22 23 24 25 26 27 29 30 30 31 32 33 34 35 35 35 36 37 38 39 39 39 39 40 41 42 43
26 26 26 25 25 25 24 22 23 23 23 24 24 23 24 24 24 24 25 26 26 27 28 29 30 31 32 33 34 34 35 36 36 37 38 39 39 40 40 40 40 41 42 43
29 28 29 28 28 28 25 24 24 25 25 25 25 26 26 27 27 26 27 28 28 29 29 30 31 31 32 33 34 34 35 36 37 37 38 39 39 39 40 40 41 41 42 42
30 30 31 31 31 30 27 27 27 28 27 27 28 28 29 29 29 28 28 29 29 30 30 30 31 32 33 33 34 34 35 36 36 37 37 38 39 39 39 40 40 40 41 42
32 32 33 33 34 33 30 30 30 30 30 30 31 31 31 31 31 30 31 31 31 31 31 32 32 32 33 33 33 34 34 35 36 36 37 37 38 38 39 39 40 40 41 42
33 34 35 35 36 35 33 33 33 33 32 32 32 32 32 33 33 33 33 33 33 33 33 33 33 34 34 34 34 34 34 35 36 37 37 37 38 39 40 40 41 42 43 43
36 37 37 37 38 36 35 35 36 35 35 34 34 34 35 35 35 35 35 34 34 34 35 35 35 35 35 35 35 35 36 36 37 37 38 39 39 40 41 42 43 43 44 44
39 39 39 39 39 38 38 38 38 38 37 37 36 36 36 36 36 36 36 36 36 37 37 37 37 37 37 37 37 37 37 38 38 38 39 39 40 40 41 42 43 44 44 45
41 41 42 41 40 40 41 41 40 40 39 39 38 38 38 37 37 38 38 38 38 38 38 39 39 38 38 38 39 39 39 39 40 40 40 40 41 42 42 43 43 44 45 45
43 43 43 44 43 43 43 43 42 42 41 40 39 39 40 39 39 39 39 40 40 39 39 39 39 39 39 40 40 40 41 41 41 41 41 42 42 43 43 43 44 44 45 46
43 44 45 45 44 45 44 43 42 42 42 42 41 41 41 41 41 41 41 41 41 40 40 40 39 39 40 40 41 41 41 41 41 42 42 43 44 44 44 45 45 46 46 47